Location: Edmonton
(53.5500°N, 113.5000°W)
Time: 13:57:46
(UTC-07:00)

N. Korean satellite - Visible Passes

Search period start: 11 December 2019 00:00
Search period end: 21 December 2019 00:00
Orbit: 455 x 506 km, 97.2° (Epoch: 10 December)

Date Brightness Start Highest point End Pass type
(mag) Time Alt. Az. Time Alt. Az. Time Alt. Az.
11 Dec 9.8 05:27:23 10° NE 05:29:25 14° E 05:31:25 10° ESE visible
11 Dec 6.5 06:59:41 10° N 07:03:12 57° WNW 07:06:38 10° SSW visible
11 Dec 7.3 17:40:45 10° S 17:44:25 59° W 17:48:03 10° NNW visible
12 Dec 6.7 06:34:13 10° NNE 06:37:47 74° ESE 06:41:16 10° S visible
12 Dec 6.5 17:15:17 10° SSE 17:18:58 74° ENE 17:22:38 10° N visible
12 Dec 10.0 18:51:07 10° WSW 18:52:49 13° W 18:54:31 10° WNW visible
13 Dec 8.0 06:08:55 10° NNE 06:12:15 38° E 06:15:31 10° SSE visible
13 Dec 7.7 07:42:42 10° NNW 07:45:28 22° WNW 07:48:13 10° WSW visible
13 Dec 9.3 18:24:13 10° SW 18:27:08 22° W 18:30:03 10° NW visible
14 Dec 9.2 05:43:53 10° NE 05:46:39 21° E 05:49:21 10° SE visible
14 Dec 7.0 07:16:54 10° N 07:20:12 37° WNW 07:23:26 10° SW visible
14 Dec 8.2 17:58:04 10° SSW 18:01:33 38° W 18:04:59 10° NNW visible
15 Dec 10.0 05:19:34 10° ENE 05:20:56 12° E 05:22:18 10° ESE visible
15 Dec 6.3 06:51:18 10° N 06:54:50 71° WNW 06:58:16 10° SSW visible
15 Dec 6.9 17:32:22 10° S 17:36:02 72° WSW 17:39:41 10° NNW visible
16 Dec 7.0 06:25:53 10° NNE 06:29:22 59° E 06:32:46 10° S visible
16 Dec 8.1 08:00:13 10° NNW 08:02:22 16° WNW 08:04:30 10° W visible
16 Dec 6.6 17:06:59 10° SSE 17:10:36 60° ENE 17:14:11 10° N visible
16 Dec 9.8 18:42:11 10° SW 18:44:21 15° W 18:46:31 10° NW visible
17 Dec 8.4 06:00:39 10° NNE 06:03:49 31° E 06:06:54 10° SSE visible
17 Dec 7.5 07:34:11 10° N 07:37:08 25° WNW 07:40:02 10° WSW visible
17 Dec 9.0 18:15:35 10° SSW 18:18:42 26° W 18:21:47 10° NW visible
18 Dec 9.4 05:35:45 10° NE 05:38:10 17° E 05:40:32 10° SE visible
18 Dec 6.7 07:08:27 10° N 07:11:49 45° WNW 07:15:07 10° SW visible
18 Dec 7.8 17:49:35 10° S 17:53:08 46° W 17:56:38 10° NNW visible
19 Dec 6.4 06:42:53 10° NNE 06:46:25 87° WNW 06:49:51 10° SSW visible
19 Dec 6.6 17:23:59 10° SSE 17:27:38 88° WSW 17:31:16 10° NNW visible
20 Dec 7.5 06:17:31 10° NNE 06:20:55 47° E 06:24:14 10° S visible
20 Dec 7.9 07:51:36 10° NNW 07:54:01 18° WNW 07:56:26 10° WSW visible
20 Dec 6.8 16:58:42 10° SE 17:02:13 49° ENE 17:05:43 10° N visible
20 Dec 9.7 18:33:22 10° SW 18:35:53 18° W 18:38:23 10° NW visible
